Flag for Canada Weather past 2 weeks in Red Deer, Alberta, Canada

Now
41 °F

Clear.


Feels Like: 41 °F
Forecast: 44 / 77 °F
Wind: 2 mph from North

Location: Red Deer

Current Time: May 23, 2015 at 4:29:29 AM

Latest Report: May 23, 2015 at 4:00 AM


Visibility: 15 mi

Pressure: 30.11 "Hg

Humidity: 66%

Dew point: 30 °F

Location of Red DeerLocation

Historic Weather in Red Deer — Graph

°F

Red Deer temperature yesterday

Maximum temperature yesterday: 75 °F (at 4:00 PM)
Minimum temperature yesterday: 43 °F (at 4:00 AM)
Average temperature yesterday: 60 °F

Past Weeks' High & Low Weather Summary

 TemperatureHumidityPressure
High75 °F (May 22, 4:00 PM)100% (May 16, 1:00 PM)30.49 "Hg (May 16, 1:00 PM)
Low28 °F (May 12, 7:00 AM)13% (May 21, 6:00 PM)29.85 "Hg (May 15, 7:00 PM)
Average49 °F48%30.17 "Hg
* Reported May 8 3:00 AM — May 23 3:00 AM, Red Deer, Weather by CustomWeather, © 2015

Note: Actual official high and low records may vary slightly from our data, if they occured in-between our weather recording intervals... More about our weather records

Advertising

Red Deer weather history for previous 24 hours

 ConditionsComfort  
Time TempWeatherWind HumidityBarometerVisibility
3:00 AM
Sat, May 23
45 °FClear.No wind53%30.10 "Hg15 mi
2:00 AM48 °FClear.2 mph54%30.08 "Hg15 mi
1:00 AM52 °FClear.3 mph41%30.06 "Hg15 mi
12:00 AM55 °FClear.5 mph36%30.05 "Hg15 mi
11:00 PM
Fri, May 22
59 °FPassing clouds.3 mph29%30.04 "Hg15 mi
10:00 PM59 °FPassing clouds.6 mph29%30.03 "Hg15 mi
9:00 PM66 °FPassing clouds.7 mph24%30.02 "Hg15 mi
8:00 PM72 °FPassing clouds.13 mph16%30.00 "Hg15 mi
7:00 PM73 °FSunny.10 mph16%30.00 "Hg15 mi
6:00 PM75 °FPassing clouds.12 mph13%30.00 "Hg15 mi
5:00 PM75 °FPassing clouds.No wind14%30.01 "Hg15 mi
4:00 PM75 °FPassing clouds.12 mph14%30.01 "Hg15 mi
3:00 PM73 °FPassing clouds.9 mph14%30.01 "Hg15 mi
2:00 PM73 °FPassing clouds.7 mph16%30.02 "Hg15 mi
1:00 PM72 °FPassing clouds.7 mph20%30.01 "Hg15 mi
12:00 PM70 °FScattered clouds.14 mph21%30.02 "Hg15 mi
11:00 AM68 °FScattered clouds.8 mph30%30.02 "Hg15 mi
10:00 AM63 °FScattered clouds.3 mph34%30.02 "Hg15 mi
9:00 AM55 °FPassing clouds.5 mph41%30.02 "Hg15 mi
8:00 AM50 °FPassing clouds.2 mph47%30.01 "Hg15 mi
7:00 AM46 °FPassing clouds.7 mph50%30.00 "Hg15 mi
6:00 AM43 °FPassing clouds.2 mph53%29.99 "Hg15 mi
5:00 AM43 °FPassing clouds.3 mph53%29.99 "Hg15 mi
4:00 AM43 °FClear.No wind53%29.99 "Hg15 mi
Weather by CustomWeather, © 2015

See weather overviewHow to use our weather pages